Regional Weather Roundup
Issued by NWS

Home | Current Version | Previous Version | Graphics & Text | Print | Product List | Glossary On
Versions: 1 2 3 4 5 6 7 8 9 10 11 12 13 14 15 16 17 18 19 20 21 22 23 24 25 26 27 28 29 30 31 32 33 34 35 36 37 38 39 40 41 42 43 44 45 46 47 48 49 50
000
ASUS43 KMKX 220100
RWRWI

WISCONSIN REGIONAL WEATHER ROUNDUP
NATIONAL WEATHER SERVICE MILWAUKEE/SULLIVAN WI
800 PM CDT SAT APR 21 2018

NOTE: "FAIR" INDICATES FEW OR NO CLOUDS BELOW 12,000 FEET WITH NO
SIGNIFICANT WEATHER AND/OR OBSTRUCTIONS TO VISIBILITY.

WIZ001-002-006>008-014>016-023>028-220200-
NORTHWEST WISCONSIN

CITY           SKY/WX    TMP DP  RH WIND       PRES   REMARKS
SUPERIOR ARPT  FAIR      48  20  33 CALM      30.32S
ASHLAND        FAIR      36  28  73 N5        30.35R WCI  32
HAYWARD        FAIR      50  29  44 CALM      30.33R
SIREN          FAIR      55  13  19 S3        30.33S
CUMBERLAND     FAIR      48   5  17 CALM      30.34S
RICE LAKE      FAIR      50  18  27 CALM      30.35S
CHETEK         FAIR      48  20  33 CALM      30.34R
LADYSMITH      FAIR      52  20  28 CALM      30.35R
EAU CLAIRE     NOT AVBL
MENOMONIE      FAIR      55  28  35 CALM      30.33S
NEW RICHMOND   FAIR      53  25  33 NE3       30.34R
OSCEOLA        FAIR      55  16  21 CALM      30.36S
$$

WIZ003>005-009-010-017-018-220200-
NORTH CENTRAL WISCONSIN

CITY           SKY/WX    TMP DP  RH WIND       PRES   REMARKS
MANITOWISH WTR FAIR      49  16  27 CALM      30.32S
ARBOR VITAE    FAIR      51  16  25 CALM      30.32S
WOODRUFF       FAIR      51  16  25 CALM      30.32S
RHINELANDER    FAIR      49  20  31 CALM      30.33R
EAGLE RIVER    FAIR      49   8  19 CALM      30.31S
LAND O LAKES   FAIR      46  14  28 NW6       30.34R
PHILLIPS       FAIR      49  19  30 CALM      30.33R
TOMAHAWK       FAIR      48  21  34 CALM      30.33S
MEDFORD        FAIR      46  29  52 S5        30.33S
MERRILL          N/A     51  26  37 CALM      30.34S
$$

WIZ029-030-035-036-043>047-220200-
CENTRAL WISCONSIN

CITY           SKY/WX    TMP DP  RH WIND       PRES   REMARKS
WAUSAU         FAIR      51  24  34 W5        30.33R
MOSINEE        PTCLDY    48  25  40 CALM      30.36R
MARSHFIELD     FAIR      51  27  39 CALM      30.33R
STEVENS POINT  FAIR      50  26  40 CALM      30.35S
WAUPACA        FAIR      50  28  42 S3        30.36R
WAUTOMA        FAIR      46  30  53 CALM      30.36R
WISC RAPIDS    FAIR      50  25  37 SW5       30.35S
CAMP DOUGLAS   CLOUDY    51  30  44 S3        30.36R
$$

WIZ011>013-019>022-031-037>040-048>050-220200-
NORTHEAST WISCONSIN

CITY           SKY/WX    TMP DP  RH WIND       PRES   REMARKS
ANTIGO         FAIR      47  27  46 W5        30.34S
SHAWANO        FAIR      52  20  28 CALM      30.34S
OCONTO         FAIR      49  20  32 S3        30.35R
STURGEON BAY   FAIR      45  23  42 S7        30.37R
GREEN BAY      FAIR      47  25  42 S6        30.36R
MANITOWOC      FAIR      41  25  53 CALM      30.38R
APPLETON       PTCLDY    48  25  40 S5        30.34S
CLINTONVILLE   FAIR      48  22  36 S5        30.34S
OSHKOSH        FAIR      45  32  60 CALM      30.36R
$$

WIZ032>034-041-042-053>061-220200-
SOUTHWEST WISCONSIN

CITY           SKY/WX    TMP DP  RH WIND       PRES   REMARKS
LA CROSSE      CLOUDY    55  32  41 SE5       30.35R
SPARTA         FAIR      51  30  44 SE5       30.36R
VIROQUA        MOCLDY    49  34  56 CALM      30.35R
BOSCOBEL       FAIR      52  37  56 CALM      30.35S
PRAIRIE DU CHI FAIR      54  29  37 CALM      30.34S
PLATTEVILLE    FAIR      51  37  57 E5        30.35S
$$

WIZ056-057-062-063-064-067-068-220200-
SOUTH CENTRAL WISCONSIN

CITY           SKY/WX    TMP DP  RH WIND       PRES   REMARKS
REEDSBURG      FAIR      51  29  44 CALM      30.36R
BARABOO/DELLS  FAIR      49  27  41 CALM      30.36R
LONE ROCK      CLOUDY    52  37  56 NE6       30.36R
MINERAL POINT  CLOUDY    52  34  50 CALM      30.35R
MADISON        MOCLDY    50  33  52 E3        30.37R
MIDDLETON      CLOUDY    52  33  47 E6        30.37R
WATERTOWN      FAIR      46  31  55 CALM      30.36S
MONROE         FAIR      50  32  50 E6        30.35S
JANESVILLE     MOCLDY    50  32  50 NE6       30.36R
$$

WIZ051-052-058>065-066-070>072-220200-
SOUTHEAST WISCONSIN

CITY           SKY/WX    TMP DP  RH WIND       PRES   REMARKS
MILWAUKEE      MOCLDY    45  16  31 S3        30.39R
WAUKESHA       CLEAR     46  25  42 CALM      30.38R
MILWAUKEE/TIMM MOCLDY    48  10  21 SE5       30.38R
RACINE         CLOUDY    42  23  46 CALM      30.40R
BURLINGTON     CLOUDY    49  25  39 E6        30.37R
KENOSHA        CLOUDY    43  24  47 E6        30.38R
FOND DU LAC    FAIR      44  29  55 S3        30.36R
SHEBOYGAN      FAIR      47  24  40 SE5       30.37R
WEST BEND      FAIR      45  23  42 CALM      30.37R
JUNEAU         CLOUDY    47  31  53 CALM      30.38R
$$

LSZ147-162-220200-
LAKE SUPERIOR

STATION/POSITION TIME  TEMP    WIND        PRES    WAVE
                       AIR SEA DIR/SP/G            HT/PER
                 (UTC) (F)     (DEG/KT/KT) (MB)    (FT/S)
DEVILS ISLAND    0000   46     120/  5/  5 1027.9S
SAXON HARBOR     0040   40     290/  5/  7 1026.4S
$$

LMZ867-665-643>646-220200-
LAKE MICHIGAN

STATION/POSITION TIME  TEMP    WIND        PRES    WAVE
                       AIR SEA DIR/SP/G            HT/PER
                 (UTC) (F)     (DEG/KT/KT) (MB)    (FT/S)
NORTHPORT PIER   0040   47                 1027.4S
KEWAUNEE LAKESHO 0030   41     170/  5/  6 1027.3S
SHEBOYGAN LAKESH 0000   40      CALM  /  1 1028.6F
PORT WASHINGTON  0030   42      CALM  /  2 1029.1S
MILWAUKEE LAKESH 0030   41      CALM  /  1   N/A
KENOSHA   LAKESH 0000   41                 1028.4
$$

TC  - TEMPERATURE IN CELSIUS
VSB - VISIBILITY IN STATUTE MILES
WCI - WIND CHILL INDEX
HX  - HEAT INDEX





USA.gov is the U.S. government's official web portal to all federal, state and local government web resources and services.